Location: Sunny Point
(33.0946°N, 85.0574°W)
Time: 06:52:44
(UTC+00:00)

Hubble Space Telescope - Visible Passes

Search period start: 02 December 2022 00:00
Search period end: 12 December 2022 00:00
Orbit: 530 x 534 km, 28.5° (Epoch: 01 December)

Date Brightness Start Highest point End Pass type
(mag) Time Alt. Az. Time Alt. Az. Time Alt. Az.
06 Dec 3.6 10:12:59 10° SSE 10:13:27 10° SSE 10:13:56 10° SSE visible
06 Dec 2.6 11:50:26 10° SW 11:53:56 28° SSE 11:57:27 10° ESE visible
07 Dec 3.5 10:00:53 13° SSE 10:00:53 13° SSE 10:02:33 10° SE visible
07 Dec 2.4 11:37:36 10° SW 11:41:14 31° SSE 11:44:52 10° ESE visible
08 Dec 3.7 09:49:25 13° SE 09:49:25 13° SE 09:50:25 10° ESE visible
08 Dec 2.1 11:24:49 10° SW 11:28:33 34° S 11:32:16 10° ESE visible
09 Dec 4.0 09:37:50 11° ESE 09:37:50 11° ESE 09:38:05 10° ESE visible
09 Dec 1.9 11:13:03 16° SW 11:15:51 37° S 11:19:39 10° ESE visible
10 Dec 1.7 11:01:21 25° SW 11:03:09 40° S 11:06:59 10° ESE visible
11 Dec 1.6 10:49:34 36° SSW 10:50:27 42° S 10:54:20 10° ESE visible
